Regional Weather Roundup
Issued by NWS

Home | Current Version | Previous Version | Graphics & Text | Print | Product List | Glossary On
Versions: 1 2 3 4 5 6 7 8 9 10 11 12 13 14 15 16 17 18 19 20 21 22 23 24 25 26 27
000
ASUS45 KTFX 241810
RWRMT
MONTANA REGIONAL WEATHER ROUNDUP
NATIONAL WEATHER SERVICE GREAT FALLS MT
1100 AM MST FRI FEB 24 2017

NOTE: "FAIR" INDICATES FEW OR NO CLOUDS BELOW 12000 FEET WITH NO
SIGNIFICANT WEATHER AND/OR OBSTRUCTIONS TO VISIBILITY.

MTZ001>007-043-241900-
WEST OF THE DIVIDE

CITY           SKY/WX    TMP DP  RH WIND       PRES   REMARKS
KALISPELL      CLOUDY    21  15  78 CALM      30.10R
MISSOULA       CLOUDY    29  16  58 N10       30.09R WCI  20
BUTTE          CLOUDY    19  14  81 CALM      29.94R
MULLAN PASS    MOSUNNY   18  15  88 VRB5      29.95S
ANACONDA         N/A     25  18  74 E3        29.97S
DEER LODGE       N/A     25  18  74 N8        30.01R WCI  16
EUREKA           N/A     21  14  73 CALM      30.15R
HAMILTON         N/A     28  14  54 N8          N/A  WCI  20
LIBBY            N/A     23  16  74 CALM      30.14R
PLAINS           N/A     25  19  77 CALM      30.14
RONAN            N/A     31  25  78 CALM      30.12R
$$

MTZ008-052>055-241900-
SOUTHWEST MONTANA

CITY           SKY/WX    TMP DP  RH WIND       PRES   REMARKS
BOZEMAN        LGT SNOW  25  19  80 W5        29.98R
DILLON         CLOUDY    23  16  74 VRB3      29.94S
W YELLOWSTONE  LGT SNOW  18  10  73 SW9       29.89R WCI   6
ENNIS          SUNNY     21  16  79 S5        29.98S
$$

MTZ009-010-012-014-046-048-049-054-241900-
EAST SLOPES AND CENTRAL MONTANA

CITY           SKY/WX    TMP DP  RH WIND       PRES   REMARKS
CUT BANK       SUNNY     23  16  74 NW13      30.01S WCI  11
GREAT FALLS    CLOUDY    27  20  75 W5        30.01R
MALMSTROM AFB  FLURRIES  26  22  83 W6        30.03R WCI  20
HELENA         MOSUNNY   31  17  56 VRB5      29.99S
AUGUSTA          N/A     27  11  50 NW5       29.97R
BOWMANS CRNR     N/A     26  14  62 NW7       29.96S WCI  18
CHOTEAU          N/A     28  18  64 NE6       30.02S WCI  22
CONRAD           N/A     22  18  85 NE2       30.04R
POWER          PTSUNNY   26  19  74 SW3       30.00S
RAYNESFORD     CLOUDY    25  19  77 W7        29.99S WCI  17
ULM            PTSUNNY   27  22  81 MISG      30.01S
$$

MTZ011-013-016-021-045-047-050-051-241900-
NORTH CENTRAL MONTANA

CITY           SKY/WX    TMP DP  RH WIND       PRES   REMARKS
HAVRE          SNOW      25  23  92 CALM      30.06S VSB 1/2
LEWISTOWN      CLOUDY    24  19  81 SW5       29.98S
N BAR RANCH    CLOUDY    23  21  93 E6        29.98S WCI  16
CHINOOK          N/A     28  27  93 CALM      30.07S
DENTON         PTSUNNY   26  21  83 SW7       29.98R WCI  18
FORT BENTON      N/A     28  21  74 MISG      30.06S
GEYSER         PTSUNNY   27  18  68 W9        29.98R WCI  18
GRASS RANGE    CLOUDY    25  23  92 W3        29.96S FOG
JUDITH GAP     PTSUNNY   20  19  93 SW7       29.96R WCI  11
ROY            PTSUNNY   26  24  93 MISG      29.99R
STANFORD         N/A     23  19  83 CALM      29.97R
WINIFRED       PTSUNNY   25  22  88 SW9       30.00R WCI  16
$$

MTZ017>020-022>027-061-062-241900-
NORTHEAST MONTANA

CITY           SKY/WX    TMP DP  RH WIND       PRES   REMARKS
GLASGOW        CLOUDY    29  23  78 SE10      30.09S WCI  20
JORDAN           N/A     28  23  81 SE9       30.07R WCI  19
SIDNEY         CLOUDY    27  17  66 S9        30.15F WCI  18
WOLF POINT     CLOUDY    29  21  72 SE6       30.13S WCI  23
PLENTYWOOD       N/A     27  16  63 S10       30.11F WCI  17
SCOBEY           N/A     25  15  65 SE2       30.06S
$$

MTZ028>42-056>058-241900-
SOUTHCENTRAL AND SOUTHEAST MONTANA

CITY           SKY/WX    TMP DP  RH WIND       PRES   REMARKS
BAKER          SUNNY     24  12  60 S13       30.09F WCI  12
BILLINGS       LGT SNOW  26  24  92 N6        29.99S FOG     WCI  19
LIVINGSTON     CLOUDY    22  18  85 CALM      29.96R
MILES CITY     CLOUDY    28  19  69 S8        30.08F WCI  20
BIG TIMBER     CLOUDY    23  19  86 W3        29.99S
EKALAKA          N/A     22  11  62 E12       30.01  WCI  11
FORSYTH          N/A     28  23  80 E5        30.06S
HARLOWTON      PTSUNNY   23  19  83 W5        29.98R
LAUREL           N/A     28  20  72 CALM      29.97S
$$

REGIONAL REPORTS...DAKOTAS

CITY           SKY/WX    TMP DP  RH WIND       PRES   REMARKS
WILLISTON      CLOUDY    25  16  68 SW8       30.15F WCI  16
MINOT          SUNNY     26  10  50 CALM      30.14S
DICKINSON      CLOUDY    21  12  68 CALM      30.11S
BEACH            N/A    N/A N/A N/A MISG        N/A
CROSBY           N/A     28  16  59 W9G16     30.15S WCI  20
TIOGA            N/A     25  16  68 W13       30.13F WCI  13
WATFORD CITY   CLOUDY    23  18  80 SW3       30.15F
BISMARCK       SUNNY     28  17  63 N10       30.15S WCI  19
GRAND FORKS    MOSUNNY   21   7  54 N12       30.14F WCI   9
FARGO          SUNNY     25  14  63 N16       30.10F WCI  12
BUFFALO SD       N/A     23  11  60 SE8       30.02F WCI  14
RAPID CITY     CLOUDY    21  15  78 CALM      30.08F
$$

REGIONAL REPORTS...WYOMING/IDAHO/WASHINGTON

CITY           SKY/WX    TMP DP  RH WIND       PRES   REMARKS
GILLETTE       CLOUDY    24  19  81 S8        29.97F HAZE    WCI  15
SHERIDAN       CLOUDY    27  20  75 SE17      29.97S WCI  14
BUFFALO WY     CLOUDY    23  17  78 S10       29.94S WCI  12
CODY           MIX PCPN  26  16  65 E3        29.94S
YELLOWSTONE LA   N/A     10   6  84 CALM      29.85S
IDAHO FALLS    LGT SNOW  19  18  95 SW22G33   29.99R FOG     WCI   2
SALMON         CLOUDY    28  18  64 CALM      29.99S
SPOKANE        LGT SNOW  24  22  91 E5        30.15R FOG
$$

REGIONAL REPORTS...ALBERTA

CITY           SKY/WX    TMP DP  RH WIND       PRES   REMARKS
EDMONTON       PTSUNNY   16  10  79 N9        30.20R WCI   4
CALGARY        SNOW      21  18  86 N13       30.06R VSB 1/2 WCI   9
LETHBRIDGE     CLOUDY    21  19  93 W8        30.06S WCI  12
MEDICINE HAT   FLURRIES  27  23  86 N5        30.08R
CARDSTON         N/A     25  10  54 SW5         N/A
MILK RIVER       N/A     25  18  74 NW8         N/A  WCI  16
$$

REGIONAL REPORTS...SASKATCHEWAN

CITY           SKY/WX    TMP DP  RH WIND       PRES   REMARKS
SWIFT CURRENT  CLOUDY    25  21  86 NW9       30.03S WCI  15
REGINA         PTSUNNY   28  16  59 W7        30.09F WCI  21
SASKATOON      CLOUDY    25  19  80 SW3       30.11F
CYPRESS HILLS    N/A     21  18  86 NW5         N/A
VAL MARIE        N/A     27  23  86 SW9         N/A  WCI  17
ROCKGLEN         N/A     23  21  93 S10         N/A  WCI  12
ASSINIBOIA       N/A     16  10  79 N13         N/A  WCI   2
$$




USA.gov is the U.S. government's official web portal to all federal, state and local government web resources and services.